• In Austria
  • List of Countries
  • For 7 days
  • Water Temperature
  • Satellite Maps
  • Weather Map
  • News
  • Weather Widgets
  • user-avatar
    Login

    Hourly Weather Seneckoe

    Today, 19 September, Wednesday

    Time Temperature Precipitation Wind Pressure Humidity
    00:00 +12°C° 0 mm 2 mps 753 mmHg 89%
    01:00 +12°C° 0 mm 2 mps 753 mmHg 90%
    02:00 +12°C° 0 mm 2 mps 753 mmHg 95%
    03:00 +12°C° 0 mm 2 mps 753 mmHg 95%
    04:00 +12°C° 0 mm 3 mps 752 mmHg 95%
    05:00 +12°C° 0 mm 3 mps 752 mmHg 95%
    06:00 +13°C° 0 mm 3 mps 752 mmHg 90%
    07:00 +14°C° 0 mm 3 mps 752 mmHg 85%
    08:00 +15°C° 0 mm 4 mps 752 mmHg 79%
    09:00 +18°C° 0 mm 4 mps 752 mmHg 72%
    10:00 +20°C° 0 mm 4 mps 752 mmHg 65%
    11:00 +22°C° 0 mm 4 mps 752 mmHg 58%
    12:00 +23°C° 0 mm 4 mps 752 mmHg 56%
    13:00 +25°C° 0 mm 4 mps 751 mmHg 54%
    14:00 +25°C° 0 mm 4 mps 751 mmHg 52%
    15:00 +25°C° 0 mm 4 mps 751 mmHg 59%
    16:00 +24°C° 0 mm 3 mps 751 mmHg 65%
    17:00 +22°C° 0 mm 3 mps 751 mmHg 71%
    18:00 +20°C° 0 mm 3 mps 751 mmHg 77%
    19:00 +19°C° 0 mm 3 mps 751 mmHg 83%
    20:00 +18°C° 0 mm 3 mps 751 mmHg 88%
    21:00 +17°C° 0 mm 3 mps 751 mmHg 90%
    22:00 +17°C° 0 mm 2 mps 751 mmHg 92%
    23:00 +17°C° 0 mm 2 mps 751 mmHg 94%

    Tomorrow, 20 September, Thursday

    Time Temperature Precipitation Wind Pressure Humidity
    00:00 +16°C° 0 mm 2 mps 751 mmHg 95%
    01:00 +16°C° 0 mm 2 mps 752 mmHg 96%
    02:00 +16°C° 0 mm 2 mps 752 mmHg 97%
    03:00 +15°C° 0 mm 2 mps 752 mmHg 97%
    04:00 +14°C° 0 mm 2 mps 752 mmHg 98%
    05:00 +14°C° 0 mm 2 mps 752 mmHg 98%
    06:00 +15°C° 0 mm 2 mps 752 mmHg 95%
    07:00 +15°C° 0 mm 2 mps 753 mmHg 91%
    08:00 +16°C° 0 mm 2 mps 753 mmHg 88%
    09:00 +18°C° 0 mm 2 mps 753 mmHg 79%
    10:00 +19°C° 0 mm 2 mps 753 mmHg 71%
    11:00 +21°C° 0 mm 2 mps 753 mmHg 63%
    12:00 +22°C° 0 mm 3 mps 753 mmHg 60%
    13:00 +24°C° 0 mm 3 mps 753 mmHg 57%
    14:00 +25°C° 0 mm 3 mps 753 mmHg 55%
    15:00 +24°C° 0 mm 3 mps 753 mmHg 60%
    16:00 +23°C° 0 mm 2 mps 753 mmHg 66%
    17:00 +21°C° 0 mm 2 mps 753 mmHg 72%
    18:00 +19°C° 0 mm 2 mps 753 mmHg 77%
    19:00 +18°C° 0 mm 2 mps 753 mmHg 82%
    20:00 +17°C° 0 mm 2 mps 754 mmHg 87%
    21:00 +16°C° 0 mm 2 mps 754 mmHg 88%
    22:00 +16°C° 0 mm 2 mps 754 mmHg 89%
    23:00 +16°C° 0 mm 2 mps 754 mmHg 89%

    Day after tomorrow, 21 September, Friday

    Time Temperature Precipitation Wind Pressure Humidity
    00:00 +15°C° 0 mm 2 mps 754 mmHg 90%
    01:00 +15°C° 0 mm 2 mps 754 mmHg 91%
    02:00 +15°C° 0 mm 2 mps 754 mmHg 91%
    03:00 +15°C° 0 mm 2 mps 754 mmHg 93%
    04:00 +15°C° 0 mm 2 mps 754 mmHg 95%
    05:00 +15°C° 0 mm 2 mps 754 mmHg 96%
    06:00 +16°C° 0 mm 2 mps 754 mmHg 93%
    07:00 +17°C° 0 mm 2 mps 754 mmHg 89%
    08:00 +18°C° 0 mm 2 mps 754 mmHg 86%
    09:00 +20°C° 0 mm 2 mps 754 mmHg 80%
    10:00 +22°C° 0 mm 3 mps 754 mmHg 73%
    11:00 +24°C° 0 mm 3 mps 754 mmHg 67%
    12:00 +25°C° 0.3 mm 3 mps 754 mmHg 66%
    13:00 +25°C° 0.3 mm 3 mps 754 mmHg 65%
    14:00 +26°C° 0.3 mm 3 mps 754 mmHg 64%
    15:00 +25°C° 0.2 mm 3 mps 753 mmHg 69%
    16:00 +24°C° 0.2 mm 3 mps 753 mmHg 74%
    17:00 +23°C° 0.2 mm 2 mps 753 mmHg 79%
    18:00 +22°C° 0 mm 3 mps 753 mmHg 81%
    19:00 +21°C° 0 mm 3 mps 752 mmHg 83%
    20:00 +20°C° 0 mm 3 mps 752 mmHg 85%
    21:00 +19°C° 0 mm 3 mps 752 mmHg 85%
    22:00 +19°C° 0 mm 4 mps 752 mmHg 84%
    23:00 +18°C° 0 mm 4 mps 752 mmHg 83%

    22 September, Saturday

    Time Temperature Precipitation Wind Pressure Humidity
    00:00 +18°C° 0 mm 4 mps 751 mmHg 81%
    01:00 +18°C° 0 mm 4 mps 751 mmHg 79%
    02:00 +18°C° 0 mm 4 mps 750 mmHg 77%
    03:00 +17°C° 0 mm 5 mps 749 mmHg 76%
    04:00 +17°C° 0 mm 5 mps 749 mmHg 75%
    05:00 +17°C° 0 mm 5 mps 748 mmHg 74%
    06:00 +17°C° 0 mm 5 mps 748 mmHg 72%
    07:00 +19°C° 0 mm 5 mps 748 mmHg 69%
    08:00 +19°C° 0 mm 6 mps 747 mmHg 67%
    09:00 +20°C° 0 mm 6 mps 747 mmHg 66%
    10:00 +20°C° 0 mm 6 mps 748 mmHg 65%
    11:00 +21°C° 0 mm 6 mps 748 mmHg 63%
    12:00 +17°C° 0.1 mm 5 mps 748 mmHg 68%
    13:00 +15°C° 0.1 mm 4 mps 749 mmHg 72%
    14:00 +12°C° 0.1 mm 3 mps 749 mmHg 76%
    15:00 +12°C° 0.1 mm 3 mps 750 mmHg 79%
    16:00 +11°C° 0.1 mm 3 mps 750 mmHg 81%
    17:00 +11°C° 0.1 mm 3 mps 750 mmHg 83%
    18:00 +11°C° 0.1 mm 3 mps 750 mmHg 85%
    19:00 +11°C° 0.1 mm 3 mps 751 mmHg 87%
    20:00 +11°C° 0.1 mm 3 mps 751 mmHg 89%
    21:00 +11°C° 0.3 mm 3 mps 751 mmHg 89%
    22:00 +10°C° 0.3 mm 3 mps 751 mmHg 90%
    23:00 +10°C° 0.3 mm 3 mps 751 mmHg 91%

    23 September, Sunday

    Time Temperature Precipitation Wind Pressure Humidity
    00:00 +10°C° 0.1 mm 3 mps 751 mmHg 91%
    01:00 +10°C° 0.1 mm 2 mps 751 mmHg 92%
    02:00 +10°C° 0.1 mm 2 mps 751 mmHg 92%
    03:00 +9°C° 0 mm 2 mps 750 mmHg 93%
    04:00 +9°C° 0 mm 2 mps 750 mmHg 93%
    05:00 +9°C° 0 mm 2 mps 750 mmHg 93%
    06:00 +9°C° 0 mm 2 mps 750 mmHg 92%
    07:00 +9°C° 0 mm 2 mps 749 mmHg 90%
    08:00 +10°C° 0 mm 2 mps 749 mmHg 88%
    09:00 +12°C° 0 mm 2 mps 749 mmHg 81%
    10:00 +13°C° 0 mm 2 mps 749 mmHg 75%
    11:00 +13°C° 0 mm 3 mps 749 mmHg 68%
    12:00 +14°C° 0.2 mm 3 mps 749 mmHg 66%
    13:00 +14°C° 0.2 mm 3 mps 748 mmHg 63%
    14:00 +16°C° 0.2 mm 3 mps 748 mmHg 61%
    15:00 +14°C° 0.3 mm 3 mps 748 mmHg 67%
    16:00 +14°C° 0.3 mm 2 mps 748 mmHg 73%
    17:00 +13°C° 0.3 mm 2 mps 748 mmHg 79%
    18:00 +12°C° 0 mm 2 mps 748 mmHg 83%
    19:00 +9°C° 0 mm 2 mps 748 mmHg 87%
    20:00 +8°C° 0 mm 2 mps 748 mmHg 91%
    21:00 +8°C° 0 mm 2 mps 748 mmHg 92%
    22:00 +7°C° 0 mm 2 mps 749 mmHg 93%
    23:00 +7°C° 0 mm 2 mps 749 mmHg 94%

    24 September, Monday

    Time Temperature Precipitation Wind Pressure Humidity
    00:00 +6°C° 0 mm 2 mps 749 mmHg 94%
    01:00 +6°C° 0 mm 2 mps 749 mmHg 95%
    02:00 +7°C° 0 mm 1 mps 749 mmHg 96%
    03:00 +6°C° 0 mm 1 mps 749 mmHg 96%
    04:00 +5°C° 0 mm 2 mps 749 mmHg 96%
    05:00 +5°C° 0 mm 2 mps 749 mmHg 97%
    06:00 +6°C° 0 mm 2 mps 748 mmHg 94%
    07:00 +7°C° 0 mm 2 mps 748 mmHg 91%
    08:00 +8°C° 0 mm 2 mps 748 mmHg 88%
    09:00 +9°C° 0 mm 2 mps 748 mmHg 81%
    10:00 +11°C° 0 mm 3 mps 748 mmHg 75%
    11:00 +12°C° 0 mm 3 mps 748 mmHg 68%
    12:00 +13°C° 0 mm 3 mps 747 mmHg 64%
    13:00 +13°C° 0 mm 3 mps 747 mmHg 61%
    14:00 +13°C° 0 mm 4 mps 746 mmHg 57%
    15:00 +13°C° 0 mm 3 mps 746 mmHg 60%
    16:00 +12°C° 0 mm 3 mps 745 mmHg 64%
    17:00 +11°C° 0 mm 3 mps 745 mmHg 68%
    18:00 +11°C° 0.6 mm 3 mps 744 mmHg 74%
    19:00 +10°C° 0.6 mm 3 mps 744 mmHg 80%
    20:00 +8°C° 0.6 mm 4 mps 744 mmHg 87%
    21:00 +8°C° 0.6 mm 4 mps 743 mmHg 87%
    22:00 +8°C° 0.6 mm 4 mps 742 mmHg 88%
    23:00 +8°C° 0.6 mm 5 mps 742 mmHg 88%
    Show more